Zurück zum Katalog

CAPELLA-19

ACADIA

AktivWissenschaftSSO
NORAD 67384·PAYLOAD·🇺🇸 United States

Gestartet Jan 11, 2026 von Vandenberg Space Force Base

Loading…

Nächste Überflüge (nächste 24 Stunden)

TLE

AktuellSource: Space-Track

Epoche: Sep 14, 2026, 10:45 UTC

1 67384U 26004X   26257.44799365  .00002445  00000-0  28133-3 0  9994
2 67384  97.8064 254.2221 0001538  90.1892 269.9500 14.86653346 36532

Verfolge CAPELLA-19 in Echtzeit mit AllMySat

Download on the App Store